Вернуться в каталог

USA 40 R/B DEB

АктивенHEO
NORAD 23380·DEBRIS·🇺🇸 United States

Запущен Aug 8, 1989 с Cape Canaveral Space Force Station

Loading…

Ближайшие Пролёты (ближайшие 24 часа)

TLE

СвежийSource: Space-Track

Эпоха: Sep 10, 2026, 23:39 UTC

1 23380U 89061BC  26253.98582668  .00006691  00000-0  46656-2 0  9991
2 23380  57.0266 251.0030 2932960   0.4218 359.8234  9.02591616 93398

Отслеживайте USA 40 R/B DEB в реальном времени с AllMySat

Download on the App Store